Location: Adelaide
(34.9285°S, 138.6007°E)
Time: 22:30:25
(UTC+10:30)

ISS - Visible Passes

Search period start: 21 November 2019 00:00
Search period end: 01 December 2019 00:00
Orbit: 412 x 421 km, 51.6° (Epoch: 21 November)

Date Brightness Start Highest point End Pass type
(mag) Time Alt. Az. Time Alt. Az. Time Alt. Az.
24 Nov -1.0 05:25:08 10° NNE 05:26:58 14° NE 05:28:48 10° E visible
26 Nov -2.9 05:23:22 10° NNW 05:26:37 45° NE 05:29:54 10° ESE visible
27 Nov -1.9 04:36:22 15° N 04:38:19 24° NE 04:41:06 10° ESE visible
28 Nov -1.2 03:49:59 13° NE 03:50:04 13° NE 03:51:39 10° E visible
28 Nov -3.2 05:23:08 10° WNW 05:26:27 51° SW 05:29:48 10° SE visible
29 Nov -3.8 04:36:26 30° NW 04:38:00 83° NE 04:41:26 10° SE visible
30 Nov -2.8 03:49:54 40° ENE 03:49:54 40° ENE 03:52:51 10° ESE visible
30 Nov -1.7 05:23:52 10° W 05:26:29 20° SSW 05:29:06 10° SSE visible
